User: anonymous   Login
Location: Unspecified
(0.0000°N, 0.0000°E)
Time: 20:02:38
(UTC+00:00)
Language:

STARLINK-35053 - Orbit

View from above orbital plane
View from above orbital plane
View from above satellite
View from above satellite

Ground track
Ground track

The orbit is defined by the following mean orbital elements,

1 65609U          26145.44332047 +.00000000 +00000-0 +32307-3 0 00002
2 65609  97.4460 213.9925 0001798 144.1693 215.9655 15.05656360    02
Epoch (UTC): 25 May 2026 10:38:22
Eccentricity: 0.0001798
inclination: 97.4460°
perigee height: 548 km
apogee height: 551 km
right ascension of ascending node: 213.9925°
argument of perigee: 144.1693°
revolutions per day: 15.05656360
mean anomaly at epoch: 215.9655°

The dashed part of the orbit path shows where the satellite is in the earth's shadow,  

DLR